Simultaneous Nadir Overpasses (SNOs) Predictions

Prediction of SNOs between GOES-16 and NOAA-19 Satellite Orbit:

Table of predicted SNOs for the next 14.0 days since TLE Epoch: 8/7/2021
Index Date Time (GOES-16) GOES-16 Lat,Lon NOAA-19 Lat,Lon Distance(km) Time Diff (sec)
1 08/08/2021 12:14:40 -0.08, -75.25 0.54, -77.98 311.26 80
2 08/09/2021 12:00:15 -0.08, -75.26 -0.10, -75.10 17.06 80
3 08/10/2021 11:48:30 -0.09, -75.26 -0.80, -72.24 345.30 80
4 08/13/2021 00:12:01 0.08, -75.27 -0.36, -77.17 217.03 80
5 08/13/2021 23:57:35 0.08, -75.28 0.30, -74.30 111.98 80
6 08/14/2021 23:45:50 0.09, -75.29 0.97, -71.43 441.06 80
7 08/16/2021 12:21:03 -0.07, -75.34 0.81, -79.22 442.61 80
8 08/17/2021 12:09:18 -0.07, -75.35 0.16, -76.35 113.62 80
9 08/18/2021 11:54:52 -0.08, -75.37 -0.50, -73.48 215.40 80
